Antigo, WI

3:48 PM CST on December 16, 2017 (GMT -0600)
Langlade County

Weather History for KAIG - February, 2013

Change the Weather History Date:

Thursday, February 21, 2013

  Actual Average Record
Temperature  
Mean Temperature 8 °F -  
Max Temperature 24 °F 31 °F 51 °F (2017)
Min Temperature -7 °F 9 °F -25 °F (2008)
Degree Days  
Heating Degree Days 56    
Moisture  
Dew Point 7 °F    
Average Humidity 80    
Maximum Humidity 96    
Minimum Humidity 63    
Precipitation  
Precipitation 0.00 in - - ()
Sea Level Pressure  
Sea Level Pressure 30.28 in    
Wind  
Wind Speed 5 mph (NE)    
Max Wind Speed 18 mph    
Max Gust Speed 26 mph    
Visibility 8 miles    
Events Snow    
Averages and records for this station are not official NWS values.
T = Trace of Precipitation, MM = Missing Value Source: NWS Daily Summary

Daily Weather History Graph

Daily Weather History Graph

Search for Another Location

Airport or City:

Trip Planner

Search our weather history database for the weather conditions in past years. The results will help you decide how hot, cold, wet, or windy it might be!

Date:

Astronomy

Feb. 21, 2013 Rise Set
Actual Time 6:47 AM CST 5:33 PM CST
Civil Twilight 6:17 AM CST 6:02 PM CST
Nautical Twilight 5:43 AM CST 6:37 PM CST
Astronomical Twilight 5:09 AM CST 7:11 PM CST
Moon 1:40 PM CST (2/21) 3:59 AM CST (2/21)
Length of Visible Light 11h 45m
Length of Day
10h 45m
Waxing Gibbous, 84% of the Moon is Illuminated
Feb 21
Waxing Gibbous
Feb 25
Full
Mar 4
Last Quarter
Mar 11
New
Mar 19
First Quarter

Hourly Weather History & Observations

Time (CST) Temp. Windchill Dew Point Humidity Pressure Visibility Wind Dir Wind Speed Gust Speed Precip Events Conditions
12:15 AM 5.9 °F -5.8 °F -1.3 °F 72% 30.30 in 10.0 mi NNE 6.9 mph - N/A   Clear
12:35 AM 5.7 °F -4.8 °F -1.7 °F 72% 30.31 in 10.0 mi NNE 5.8 mph - N/A   Clear
12:55 AM 4.3 °F - -2.7 °F 73% 30.32 in 10.0 mi Calm Calm - N/A   Clear
1:15 AM 2.3 °F - -4.0 °F 75% 30.33 in 10.0 mi Calm Calm - N/A   Clear
1:35 AM -1.3 °F - -6.2 °F 80% 30.34 in 10.0 mi Calm Calm - N/A   Clear
1:55 AM -0.0 °F - -4.5 °F 81% 30.35 in 10.0 mi Calm Calm - N/A   Clear
2:15 AM -0.0 °F - -4.0 °F 83% 30.35 in 10.0 mi Calm Calm - N/A   Clear
2:35 AM -4.4 °F - -7.6 °F 86% 30.34 in 10.0 mi Calm Calm - N/A   Clear
2:55 AM -4.7 °F - -7.8 °F 87% 30.34 in 10.0 mi Calm Calm - N/A   Clear
3:15 AM -2.6 °F - -5.6 °F 87% 30.34 in 10.0 mi Calm Calm - N/A   Clear
3:35 AM -4.9 °F - -8.1 °F 86% 30.35 in 10.0 mi Calm Calm - N/A   Clear
3:55 AM -6.7 °F -19.5 °F -10.5 °F 84% 30.35 in 10.0 mi North 5.8 mph - N/A   Clear
4:15 AM -5.8 °F - -9.0 °F 86% 30.37 in 10.0 mi Calm Calm - N/A   Clear
4:35 AM -4.9 °F -15.6 °F -8.3 °F 85% 30.37 in 10.0 mi North 4.6 mph - N/A   Clear
4:55 AM -7.1 °F -15.9 °F -10.5 °F 85% 30.38 in 10.0 mi North 3.5 mph - N/A   Clear
5:15 AM -6.3 °F -19.1 °F -9.4 °F 87% 30.39 in 10.0 mi NNE 5.8 mph - N/A   Clear
6:15 AM -0.8 °F -12.5 °F -3.6 °F 88% 30.38 in 10.0 mi North 5.8 mph - N/A   Overcast
6:35 AM 0.5 °F -15.6 °F -2.4 °F 88% 30.36 in 10.0 mi North 10.4 mph - N/A   Overcast
6:55 AM 0.9 °F -14.2 °F -2.2 °F 87% 30.34 in 10.0 mi NNE 9.2 mph - N/A   Overcast
7:15 AM 1.2 °F -14.7 °F -2.2 °F 86% 30.31 in 10.0 mi NNE 10.4 mph - N/A   Mostly Cloudy
7:35 AM 2.1 °F -13.6 °F -1.3 °F 86% 30.30 in 7.0 mi NNE 10.4 mph - N/A   Clear
7:55 AM 3.0 °F -14.8 °F -0.4 °F 86% 30.27 in 1.2 mi NNE 13.8 mph - N/A   Overcast
8:15 AM 4.3 °F -7.8 °F 1.4 °F 88% 30.31 in 1.0 mi NNE 6.9 mph - N/A   Overcast
8:35 AM 5.5 °F - 2.3 °F 86% 30.37 in 0.5 mi Calm Calm - N/A Snow Light Snow
8:55 AM 5.7 °F -1.3 °F 2.7 °F 87% 30.38 in 0.5 mi North 3.5 mph - N/A Snow Light Snow
9:15 AM 6.4 °F -2.4 °F 3.4 °F 87% 30.38 in 1.8 mi North 4.6 mph - N/A Snow Light Snow
9:35 AM 7.2 °F 0.3 °F 3.7 °F 86% 30.39 in 10.0 mi NW 3.5 mph - N/A   Clear
9:55 AM 8.1 °F -2.0 °F 3.9 °F 83% 30.38 in 10.0 mi NNW 5.8 mph - N/A   Clear
10:15 AM 9.3 °F - 4.6 °F 81% 30.37 in 10.0 mi Calm Calm - N/A   Clear
10:35 AM 10.9 °F 4.7 °F 5.4 °F 78% 30.36 in 10.0 mi NNW 3.5 mph - N/A   Clear
10:55 AM 12.0 °F - 5.9 °F 76% 30.35 in 10.0 mi Calm Calm - N/A   Clear
11:15 AM 12.9 °F - 6.6 °F 76% 30.35 in 10.0 mi Calm Calm - N/A   Clear
11:35 AM 14.0 °F - 7.3 °F 75% 30.35 in 10.0 mi Calm Calm - N/A   Clear
11:55 AM 16.3 °F - 7.9 °F 69% 30.35 in 10.0 mi Calm Calm - N/A   Clear
12:15 PM 18.5 °F - 8.6 °F 65% 30.34 in 10.0 mi Calm Calm - N/A   Clear
12:35 PM 18.5 °F - 9.5 °F 68% 30.33 in 10.0 mi Calm Calm - N/A   Clear
12:55 PM 20.7 °F - 10.4 °F 65% 30.31 in 10.0 mi Calm Calm - N/A   Clear
1:15 PM 22.5 °F - 11.7 °F 63% 30.30 in 10.0 mi Calm Calm - N/A   Clear
1:35 PM 22.5 °F - 12.2 °F 65% 30.29 in 10.0 mi Calm Calm - N/A   Clear
1:55 PM 23.5 °F 19.1 °F 13.1 °F 64% 30.28 in 10.0 mi NE 3.5 mph - N/A   Clear
2:15 PM 23.9 °F 16.8 °F 13.8 °F 65% 30.27 in 10.0 mi NE 5.8 mph - N/A   Clear
2:35 PM 24.1 °F 15.2 °F 14.7 °F 68% 30.25 in 10.0 mi NE 8.1 mph - N/A   Clear
2:55 PM 24.8 °F 15.3 °F 14.2 °F 64% 30.24 in 10.0 mi NE 9.2 mph - N/A   Clear
3:15 PM 24.6 °F 15.8 °F 14.5 °F 66% 30.24 in 10.0 mi ENE 8.1 mph - N/A   Clear
3:35 PM 24.4 °F 14.9 °F 14.7 °F 67% 30.24 in 10.0 mi ENE 9.2 mph - N/A   Clear
3:55 PM 23.2 °F 14.1 °F 14.9 °F 71% 30.24 in 10.0 mi NE 8.1 mph - N/A   Clear
4:15 PM 22.3 °F 16.1 °F 14.9 °F 73% 30.25 in 10.0 mi ENE 4.6 mph - N/A   Clear
4:35 PM 23.5 °F 11.8 °F 14.4 °F 68% 30.26 in 10.0 mi ESE 12.7 mph - N/A   Clear
4:55 PM 23.2 °F 12.6 °F 14.0 °F 68% 30.25 in 10.0 mi East 10.4 mph - N/A   Clear
5:15 PM 22.6 °F 11.9 °F 14.2 °F 70% 30.25 in 10.0 mi East 10.4 mph - N/A   Clear
5:35 PM 22.1 °F 12.0 °F 14.0 °F 71% 30.25 in 10.0 mi East 9.2 mph - N/A   Clear
5:55 PM 22.6 °F 12.6 °F 14.0 °F 69% 30.23 in 10.0 mi East 9.2 mph - N/A   Clear
6:15 PM 21.4 °F 10.4 °F 14.4 °F 74% 30.22 in 10.0 mi East 10.4 mph - N/A   Clear
6:35 PM 21.2 °F 10.9 °F 14.7 °F 76% 30.22 in 10.0 mi East 9.2 mph 17.3 mph N/A   Clear
6:55 PM 21.2 °F 9.5 °F 14.9 °F 77% 30.20 in 10.0 mi East 11.5 mph - N/A   Scattered Clouds
7:15 PM 21.0 °F 9.9 °F 14.9 °F 77% 30.20 in 10.0 mi East 10.4 mph - N/A   Mostly Cloudy
7:35 PM 21.0 °F 9.3 °F 16.0 °F 81% 30.20 in 10.0 mi East 11.5 mph - N/A   Overcast
7:55 PM 21.0 °F 7.1 °F 16.7 °F 83% 30.20 in 10.0 mi ENE 16.1 mph - N/A   Overcast
8:15 PM 20.5 °F 5.9 °F 16.7 °F 85% 30.19 in 10.0 mi East 17.3 mph 20.7 mph N/A   Overcast
8:35 PM 19.9 °F 4.8 °F 17.4 °F 90% 30.19 in 10.0 mi East 18.4 mph 24.2 mph N/A   Overcast
8:55 PM 19.2 °F 4.3 °F 16.7 °F 90% 30.19 in 7.0 mi East 17.3 mph 26.5 mph N/A   Overcast
9:15 PM 18.5 °F 4.9 °F 17.6 °F 96% 30.17 in 5.0 mi East 13.8 mph 24.2 mph N/A   Overcast
9:35 PM 18.5 °F 3.3 °F 17.6 °F 96% 30.17 in 5.0 mi East 17.3 mph 25.3 mph N/A   Overcast
9:55 PM 18.5 °F 4.3 °F 17.6 °F 96% 30.15 in 3.0 mi East 15.0 mph 26.5 mph N/A   Overcast
10:15 PM 18.5 °F 2.9 °F 17.6 °F 96% 30.15 in 3.0 mi East 18.4 mph - N/A   Overcast
10:35 PM 18.5 °F 3.3 °F 17.4 °F 96% 30.13 in 2.5 mi East 17.3 mph 20.7 mph N/A   Overcast
10:55 PM 18.5 °F 3.3 °F 17.4 °F 96% 30.12 in 3.0 mi East 17.3 mph 24.2 mph N/A   Overcast
11:15 PM 18.5 °F 4.3 °F 17.4 °F 96% 30.11 in 4.0 mi East 15.0 mph 23.0 mph N/A   Overcast
11:35 PM 18.5 °F 3.8 °F 17.2 °F 95% 30.11 in 4.0 mi East 16.1 mph 23.0 mph N/A   Overcast